Date String (YYYY-MM-DD hh:mm:ss) UTC,Instrument flags,absolute air pressure of the measurement (hPa),sample flow rate (lpm),inlet stack bypass flow (lpm),air temperature of the measurement (°C),ambient temperature measured by the external sensor (°C),aerosol sample conditioner tube jacket temperature (°C),OPC LED temperature (°C),internal box temperature (°C),relative humidity of the measurement (%),span deviation,mass concentration of particles derived from Lorenz-Mie calculation of OPC scattering (μg/m³),mass concentration of particles derived from Lorenz-Mie calculation of OPC scattering (μg/m³),mass concentration of particles derived from Lorenz-Mie calculation of OPC scattering (μg/m³)
DateTimeUTC,F1_M11,P_M11,Q1_M11,Q2_M11,T1_M11,T2_M11,T3_M11,T4_M11,T5_M11,U1_M11,ZSPAN_M11,X2_M11,X0_M11,X1_M11
2023-11-01 20:00:00,SystemResetWarning,0830.3,5.00,000.00,023.9,023.2,000.0,032.2,025.5,12.9,0000.0,0000.73,0002.06,0000.62
2023-11-01 20:01:00,SystemResetWarning,0830.4,4.99,000.00,023.9,023.2,000.0,032.2,025.5,12.6,0000.0,0000.94,0002.46,0000.77
2023-11-01 20:02:00,SystemResetWarning,0830.3,5.01,000.00,023.9,023.2,000.0,032.2,025.5,13.0,0000.0,0001.18,0002.85,0000.94
2023-11-01 20:03:00,SystemResetWarning,0830.4,5.01,000.00,024.0,023.2,000.0,032.2,025.5,12.1,0000.0,0001.40,0002.89,0001.10
2023-11-01 20:04:00,SystemResetWarning,0830.3,5.00,000.00,024.0,023.2,000.0,032.2,025.5,11.9,0000.0,0001.61,0002.51,0001.25
2023-11-01 20:05:00,SystemResetWarning,0830.4,5.00,000.00,024.0,023.2,000.0,032.2,025.5,12.3,0000.0,0001.77,0002.79,0001.37
2023-11-01 20:06:00,SystemResetWarning,0830.3,4.99,000.00,024.0,023.2,000.0,032.3,025.5,12.7,0000.0,0001.89,0003.03,0001.44
2023-11-01 20:09:00,SystemResetWarning,0830.3,5.00,000.00,024.0,023.3,000.0,032.3,025.6,11.4,0000.0,0002.35,0003.86,0001.72
2023-11-01 20:10:00,SystemResetWarning,0830.3,5.00,000.00,024.1,023.3,000.0,032.3,025.6,12.0,0000.0,0002.55,0004.16,0001.86
2023-11-01 20:11:00,SystemResetWarning,0830.3,5.00,000.00,024.1,023.3,000.0,032.3,025.6,11.4,0000.0,0002.70,0004.36,0001.99
2023-11-01 20:12:00,SystemResetWarning,0830.3,5.00,000.00,024.1,023.3,000.0,032.3,025.6,11.0,0000.0,0002.68,0004.23,0001.98
2023-11-01 20:13:00,SystemResetWarning,0830.3,5.00,000.00,024.1,023.4,000.0,032.4,025.6,10.9,0000.0,0002.59,0004.03,0001.92
2023-11-01 20:14:00,SystemResetWarning,0830.3,4.99,000.00,024.1,023.4,000.0,032.4,025.6,11.7,0000.0,0002.44,0003.87,0001.85
2023-11-01 20:15:00,SystemResetWarning,0830.3,4.99,000.00,024.2,023.4,000.0,032.4,025.7,14.7,0000.0,0002.31,0004.89,0001.76
2023-11-01 20:16:00,SystemResetWarning,0830.3,5.00,000.00,024.2,023.4,000.0,032.4,025.7,15.1,0000.0,0002.19,0004.67,0001.69
2023-11-01 20:17:00,SystemResetWarning,0830.3,5.01,000.00,024.2,023.4,000.0,032.4,025.6,15.1,0000.0,0002.10,0004.49,0001.64
2023-11-01 20:18:00,SystemResetWarning,0830.3,5.01,000.00,024.2,023.4,000.0,032.4,025.6,15.0,0000.0,0002.01,0004.43,0001.60
2023-11-01 20:19:00,SystemResetWarning,0830.3,5.01,000.00,024.2,023.4,000.0,032.4,025.6,15.1,0000.0,0001.96,0006.21,0001.56
2023-11-01 20:20:00,SystemResetWarning,0830.4,5.01,000.00,024.2,023.4,000.0,032.5,025.7,15.0,0000.0,0001.95,0006.44,0001.56
2023-11-01 20:21:00,SystemResetWarning,0830.4,5.00,000.00,024.2,023.4,000.0,032.5,025.7,14.8,0000.0,0001.88,0006.30,0001.53
2023-11-01 20:22:00,SystemResetWarning,0830.4,5.00,000.00,024.2,023.4,000.0,032.5,025.7,14.2,0000.0,0001.83,0006.34,0001.46
2023-11-01 20:23:00,SystemResetWarning,0830.4,4.99,000.00,024.2,023.5,000.0,032.5,025.7,14.0,0000.0,0001.82,0006.42,0001.40
2023-11-01 20:24:00,SystemResetWarning,0830.4,5.00,000.00,024.2,023.5,000.0,032.5,025.7,14.0,0000.0,0001.80,0006.44,0001.36
2023-11-01 20:25:00,SystemResetWarning,0830.4,4.99,000.00,024.2,023.5,000.0,032.5,025.7,13.9,0000.0,0001.79,0006.49,0001.31
2023-11-01 20:26:00,SystemResetWarning,0830.5,4.99,000.00,024.2,023.5,000.0,032.5,025.8,14.5,0000.0,0001.75,0005.56,0001.25
2023-11-01 20:27:00,SystemResetWarning,0830.5,5.00,000.00,024.3,023.5,000.0,032.5,025.8,14.6,0000.0,0001.68,0005.00,0001.20
2023-11-01 20:28:00,SystemResetWarning,0830.4,5.00,000.00,024.3,023.6,000.0,032.5,025.9,14.7,0000.0,0001.64,0004.92,0001.16
2023-11-01 20:29:00,SystemResetWarning,0830.4,5.01,000.00,024.3,023.6,000.0,032.6,025.9,14.8,0000.0,0001.65,0004.92,0001.19
2023-11-01 20:30:00,SystemResetWarning,0830.4,5.00,000.00,024.3,023.6,000.0,032.6,025.9,14.8,0000.0,0001.67,0003.45,0001.21
2023-11-01 20:31:00,SystemResetWarning,0830.4,5.00,000.00,024.3,023.6,000.0,032.6,025.9,14.4,0000.0,0001.67,0003.34,0001.21
2023-11-01 20:32:00,SystemResetWarning,0830.4,5.01,000.00,024.3,023.6,000.0,032.6,025.9,14.7,0000.0,0001.63,0003.82,0001.19
2023-11-01 20:33:00,SystemResetWarning,0830.4,4.99,000.00,024.3,023.6,000.0,032.6,025.9,14.5,0000.0,0001.60,0003.87,0001.17
2023-11-01 20:34:00,SystemResetWarning,0830.4,5.00,000.00,024.4,023.6,000.0,032.6,025.9,14.8,0000.0,0001.59,0003.91,0001.16
2023-11-01 20:35:00,SystemResetWarning,0830.4,5.00,000.00,024.4,023.7,000.0,032.6,026.0,15.0,0000.0,0001.58,0003.93,0001.16
2023-11-01 20:36:00,SystemResetWarning,0830.5,5.00,000.00,024.4,023.7,000.0,032.7,025.9,14.6,0000.0,0001.52,0003.80,0001.15
2023-11-01 20:37:00,SystemResetWarning,0830.4,5.00,000.00,024.4,023.7,000.0,032.7,026.0,15.7,0000.0,0001.53,0003.77,0001.17
2023-11-01 20:38:00,SystemResetWarning,0830.5,5.00,000.00,024.4,023.7,000.0,032.7,026.0,16.5,0000.0,0001.54,0003.88,0001.18
2023-11-01 20:39:00,SystemResetWarning,0830.4,5.00,000.00,024.4,023.7,000.0,032.7,026.0,16.9,0000.0,0001.56,0004.64,0001.18
2023-11-01 20:40:00,SystemResetWarning,0830.5,5.01,000.00,024.4,023.7,000.0,032.7,026.0,16.0,0000.0,0001.53,0004.69,0001.15
2023-11-01 20:41:00,SystemResetWarning,0830.4,5.01,000.00,024.5,023.7,000.0,032.7,026.0,15.6,0000.0,0001.47,0004.56,0001.10
2023-11-01 20:42:00,SystemResetWarning,0830.5,5.00,000.00,024.5,023.8,000.0,032.7,026.1,16.4,0000.0,0001.43,0004.11,0001.04
2023-11-01 20:43:00,SystemResetWarning,0830.4,4.99,000.00,024.5,023.8,000.0,032.8,026.1,15.4,0000.0,0001.37,0003.47,0000.98
2023-11-01 20:44:00,SystemResetWarning,0830.4,4.99,000.00,024.5,023.8,000.0,032.8,026.1,15.2,0000.0,0001.28,0003.01,0000.92
2023-11-01 20:45:00,SystemResetWarning,0830.4,4.99,000.00,024.5,023.8,000.0,032.8,026.1,15.3,0000.0,0001.16,0002.69,0000.87
2023-11-01 20:46:00,SystemResetWarning,0830.4,4.99,000.00,024.6,023.8,000.0,032.8,026.1,15.1,0000.0,0001.09,0003.04,0000.84
2023-11-01 20:47:00,SystemResetWarning,0830.4,5.01,000.00,024.6,023.9,000.0,032.8,026.1,15.2,0000.0,0001.05,0003.31,0000.81
2023-11-01 20:48:00,SystemResetWarning,0830.4,5.01,000.00,024.6,023.9,000.0,032.8,026.1,15.5,0000.0,0001.02,0003.30,0000.78
2023-11-01 20:49:00,SystemResetWarning,0830.4,5.01,000.00,024.6,023.9,000.0,032.8,026.1,15.6,0000.0,0000.99,0003.46,0000.76
2023-11-01 20:50:00,SystemResetWarning,0830.4,5.00,000.00,024.6,023.9,000.0,032.9,026.2,15.1,0000.0,0000.97,0002.81,0000.75
2023-11-01 20:51:00,SystemResetWarning,0830.4,5.00,000.00,024.7,024.0,000.0,032.9,026.2,15.3,0000.0,0001.02,0003.35,0000.79
2023-11-01 20:52:00,SystemResetWarning,0830.5,5.00,000.00,024.7,024.0,000.0,032.9,026.2,15.7,0000.0,0001.10,0003.66,0000.86
2023-11-01 20:53:00,SystemResetWarning,0830.4,5.01,000.00,024.7,024.0,000.0,032.9,026.3,15.5,0000.0,0001.26,0003.99,0001.00
2023-11-01 20:54:00,SystemResetWarning,0830.4,5.00,000.00,024.7,024.0,000.0,032.9,026.3,15.3,0000.0,0001.44,0004.34,0001.12
2023-11-01 20:55:00,SystemResetWarning,0830.4,5.00,000.00,024.7,024.1,000.0,032.9,026.3,14.7,0000.0,0001.65,0004.77,0001.26
2023-11-01 20:56:00,SystemResetWarning,0830.4,5.00,000.00,024.8,024.1,000.0,033.0,026.3,14.5,0000.0,0001.83,0005.02,0001.37
2023-11-01 20:57:00,SystemResetWarning,0830.4,5.00,000.00,024.8,024.1,000.0,033.0,026.3,14.6,0000.0,0001.97,0005.12,0001.46
2023-11-01 20:58:00,SystemResetWarning,0830.4,5.00,000.00,024.8,024.1,000.0,033.0,026.3,14.3,0000.0,0002.16,0005.20,0001.55
2023-11-01 20:59:00,SystemResetWarning,0830.4,4.99,000.00,024.8,024.1,000.0,033.0,026.4,14.6,0000.0,0002.31,0005.41,0001.64
